| time (UTC) | temp F | wind direction | speed MPH | gust MPH | rain 1hr in | rain 24hr in | rain mn in | humidity % | barometer mb |
| 20260831212626 | 81 | 3 | 0.0 | 0.0 | 0.00 | 0.00 | 0.00 | 70 | 1019.6 |
| 20260831212116 | 82 | 3 | 0.0 | 0.0 | 0.00 | 0.00 | 0.00 | 69 | 1019.6 |
| 20260831211625 | 82 | 3 | 0.0 | 0.0 | 0.00 | 0.00 | 0.00 | 70 | 1019.6 |
| 20260831211154 | 82 | 3 | 0.0 | 0.0 | 0.00 | 0.00 | 0.00 | 70 | 1019.6 |
| 20260831210622 | 82 | 3 | 0.0 | 0.0 | 0.00 | 0.00 | 0.00 | 71 | 1019.6 |
| 20260831210130 | 82 | 3 | 0.0 | 0.0 | 0.00 | 0.00 | 0.00 | 70 | 1019.6 |
| 20260831205621 | 82 | 3 | 0.0 | 0.0 | 0.00 | 0.00 | 0.00 | 69 | 1019.7 |
| 20260831205130 | 82 | 316 | 0.0 | 0.0 | 0.00 | 0.00 | 0.00 | 69 | 1019.6 |
| 20260831204619 | 82 | 316 | 0.0 | 0.0 | 0.00 | 0.00 | 0.00 | 68 | 1019.7 |
| 20260831204128 | 82 | 316 | 0.0 | 0.0 | 0.00 | 0.00 | 0.00 | 71 | 1019.7 |
| 20260831203618 | 83 | 316 | 0.0 | 0.0 | 0.00 | 0.00 | 0.00 | 67 | 1019.8 |
| 20260831203126 | 83 | 316 | 0.0 | 0.0 | 0.00 | 0.00 | 0.00 | 70 | 1019.8 |
| 20260831202616 | 83 | 307 | 0.0 | 0.0 | 0.00 | 0.00 | 0.00 | 68 | 1019.8 |
| 20260831202124 | 82 | 307 | 0.0 | 0.0 | 0.00 | 0.00 | 0.00 | 69 | 1019.9 |
| 20260831201613 | 82 | 340 | 0.0 | 0.0 | 0.00 | 0.00 | 0.00 | 69 | 1019.9 |
| 20260831201122 | 82 | 41 | 0.0 | 0.0 | 0.00 | 0.00 | 0.00 | 69 | 1019.8 |
| 20260831200632 | 82 | 22 | 0.0 | 0.0 | 0.00 | 0.00 | 0.00 | 71 | 1019.9 |
| 20260831200121 | 82 | 22 | 0.0 | 0.0 | 0.00 | 0.00 | 0.00 | 67 | 1019.9 |
| 20260831195630 | 82 | 47 | 0.0 | 0.0 | 0.00 | 0.00 | 0.00 | 69 | 1019.9 |
| 20260831195119 | 82 | 147 | 0.0 | 0.0 | 0.00 | 0.00 | 0.00 | 67 | 1020.0 |
| 20260831194629 | 82 | 145 | 0.0 | 0.0 | 0.00 | 0.00 | 0.00 | 70 | 1020.0 |
| 20260831194117 | 81 | 144 | 0.0 | 0.0 | 0.00 | 0.00 | 0.00 | 73 | 1020.0 |
| 20260831193623 | 81 | 145 | 0.0 | 0.0 | 0.00 | 0.00 | 0.00 | 72 | 1019.9 |
| 20260831193132 | 80 | 144 | 0.0 | 0.0 | 0.00 | 0.00 | 0.00 | 73 | 1020.0 |
| 20260831192621 | 80 | 145 | 0.0 | 0.0 | 0.00 | 0.00 | 0.00 | 73 | 1020.1 |
| 20260831192151 | 81 | 145 | 0.0 | 0.0 | 0.00 | 0.00 | 0.00 | 71 | 1020.2 |
| 20260831191619 | 81 | 145 | 0.0 | 0.0 | 0.00 | 0.00 | 0.00 | 70 | 1020.3 |
| 20260831191127 | 81 | 145 | 0.0 | 0.0 | 0.00 | 0.00 | 0.00 | 70 | 1020.4 |
| 20260831190617 | 81 | 95 | 0.0 | 0.0 | 0.00 | 0.00 | 0.00 | 71 | 1020.4 |
| 20260831190127 | 81 | 120 | 0.0 | 0.0 | 0.00 | 0.00 | 0.00 | 72 | 1020.4 |
| 20260831185615 | 82 | 120 | 0.0 | 0.0 | 0.00 | 0.00 | 0.00 | 71 | 1020.5 |
| 20260831185124 | 82 | 170 | 0.0 | 0.0 | 0.00 | 0.00 | 0.00 | 70 | 1020.5 |
| 20260831184654 | 81 | 170 | 0.0 | 0.0 | 0.00 | 0.00 | 0.00 | 70 | 1020.6 |
| 20260831184121 | 82 | 120 | 0.0 | 0.0 | 0.00 | 0.00 | 0.00 | 68 | 1020.6 |
| 20260831183631 | 82 | 217 | 0.0 | 0.0 | 0.00 | 0.00 | 0.00 | 68 | 1020.6 |
| 20260831183120 | 83 | 99 | 0.0 | 1.0 | 0.00 | 0.00 | 0.00 | 66 | 1020.5 |
| 20260831182630 | 83 | 184 | 0.0 | 2.0 | 0.00 | 0.00 | 0.00 | 65 | 1020.5 |
| 20260831182119 | 83 | 183 | 0.0 | 2.0 | 0.00 | 0.00 | 0.00 | 66 | 1020.5 |
| 20260831181628 | 83 | 170 | 0.0 | 2.0 | 0.00 | 0.00 | 0.00 | 67 | 1020.5 |
| 20260831181118 | 82 | 274 | 0.0 | 2.0 | 0.00 | 0.00 | 0.00 | 68 | 1020.5 |
| 20260831180626 | 82 | 191 | 0.0 | 0.0 | 0.00 | 0.00 | 0.00 | 68 | 1020.5 |
| 20260831180116 | 82 | 52 | 0.0 | 1.0 | 0.00 | 0.00 | 0.00 | 68 | 1020.5 |
| 20260831175619 | 82 | 105 | 0.0 | 1.0 | 0.00 | 0.00 | 0.00 | 69 | 1020.5 |
| 20260831175129 | 82 | 128 | 0.0 | 0.0 | 0.00 | 0.00 | 0.00 | 69 | 1020.5 |
| 20260831174617 | 82 | 33 | 0.0 | 0.0 | 0.00 | 0.00 | 0.00 | 69 | 1020.7 |
| 20260831174127 | 81 | 33 | 0.0 | 2.0 | 0.00 | 0.00 | 0.00 | 69 | 1020.7 |
| 20260831173615 | 82 | 114 | 0.0 | 2.0 | 0.00 | 0.00 | 0.00 | 69 | 1020.6 |
| 20260831173145 | 82 | 28 | 0.0 | 1.0 | 0.00 | 0.00 | 0.00 | 68 | 1020.7 |
| 20260831172614 | 82 | 344 | 0.0 | 1.0 | 0.00 | 0.00 | 0.00 | 68 | 1020.7 |
| 20260831172142 | 82 | 29 | 0.0 | 3.0 | 0.00 | 0.00 | 0.00 | 66 | 1020.6 |
| 20260831171631 | 82 | 255 | 0.0 | 3.0 | 0.00 | 0.00 | 0.00 | 66 | 1020.6 |
| 20260831171139 | 83 | 43 | 0.0 | 4.0 | 0.00 | 0.00 | 0.00 | 64 | 1020.6 |
| 20260831170628 | 84 | 40 | 1.0 | 6.0 | 0.00 | 0.00 | 0.00 | 64 | 1020.7 |
| 20260831170137 | 85 | 218 | 2.0 | 8.0 | 0.00 | 0.00 | 0.00 | 63 | 1020.8 |
| 20260831165625 | 84 | 253 | 3.0 | 7.0 | 0.00 | 0.00 | 0.00 | 65 | 1020.8 |
| 20260831165115 | 84 | 32 | 1.0 | 5.0 | 0.00 | 0.00 | 0.00 | 63 | 1020.8 |
| 20260831164623 | 85 | 125 | 1.0 | 6.0 | 0.00 | 0.00 | 0.00 | 64 | 1021.0 |
| 20260831164127 | 85 | 207 | 3.0 | 6.0 | 0.00 | 0.00 | 0.00 | 62 | 1020.8 |
| 20260831163615 | 84 | 101 | 2.0 | 5.0 | 0.00 | 0.00 | 0.00 | 63 | 1020.9 |
| 20260831163124 | 85 | 181 | 1.0 | 6.0 | 0.00 | 0.00 | 0.00 | 63 | 1021.0 |
| 20260831162653 | 85 | 155 | 2.0 | 9.0 | 0.00 | 0.00 | 0.00 | 62 | 1021.1 |
| 20260831162122 | 85 | 170 | 4.0 | 9.0 | 0.00 | 0.00 | 0.00 | 62 | 1021.1 |
| 20260831161630 | 85 | 236 | 2.0 | 5.0 | 0.00 | 0.00 | 0.00 | 64 | 1021.1 |
| 20260831161119 | 85 | 148 | 0.0 | 5.0 | 0.00 | 0.00 | 0.00 | 63 | 1021.1 |
| 20260831160629 | 85 | 184 | 3.0 | 6.0 | 0.00 | 0.00 | 0.00 | 65 | 1021.1 |
| 20260831160118 | 84 | 138 | 3.0 | 6.0 | 0.00 | 0.00 | 0.00 | 66 | 1021.1 |
| 20260831155626 | 84 | 244 | 1.0 | 4.0 | 0.00 | 0.00 | 0.00 | 64 | 1021.0 |
| 20260831155116 | 84 | 276 | 1.0 | 7.0 | 0.00 | 0.00 | 0.00 | 67 | 1021.0 |
| 20260831154625 | 84 | 20 | 3.0 | 7.0 | 0.00 | 0.00 | 0.00 | 65 | 1021.1 |
| 20260831154115 | 83 | 327 | 0.0 | 3.0 | 0.00 | 0.00 | 0.00 | 65 | 1021.1 |
| 20260831153623 | 82 | 76 | 0.0 | 6.0 | 0.00 | 0.00 | 0.00 | 68 | 1021.2 |
| 20260831153132 | 83 | 97 | 1.0 | 6.0 | 0.00 | 0.00 | 0.00 | 66 | 1021.2 |
| 20260831152621 | 83 | 132 | 1.0 | 5.0 | 0.00 | 0.00 | 0.00 | 68 | 1021.2 |
| 20260831152128 | 82 | 268 | 2.0 | 4.0 | 0.00 | 0.00 | 0.00 | 68 | 1021.2 |
| 20260831151618 | 82 | 287 | 1.0 | 8.0 | 0.00 | 0.00 | 0.00 | 67 | 1021.2 |
| 20260831151127 | 83 | 214 | 1.0 | 8.0 | 0.00 | 0.00 | 0.00 | 66 | 1021.2 |
| 20260831150616 | 82 | 211 | 2.0 | 6.0 | 0.00 | 0.00 | 0.00 | 68 | 1021.1 |
| 20260831150124 | 81 | 317 | 1.0 | 5.0 | 0.00 | 0.00 | 0.00 | 71 | 1021.1 |
| 20260831145629 | 81 | 188 | 1.0 | 3.0 | 0.00 | 0.00 | 0.00 | 72 | 1021.1 |
| 20260831145117 | 79 | 170 | 0.0 | 3.0 | 0.00 | 0.00 | 0.00 | 75 | 1021.1 |
| 20260831144626 | 78 | 174 | 0.0 | 3.0 | 0.00 | 0.00 | 0.00 | 74 | 1021.2 |
| 20260831144113 | 79 | 117 | 1.0 | 3.0 | 0.00 | 0.00 | 0.00 | 74 | 1021.2 |
| 20260831143622 | 79 | 134 | 0.0 | 3.0 | 0.00 | 0.00 | 0.00 | 74 | 1021.0 |
| 20260831143132 | 79 | 24 | 0.0 | 3.0 | 0.00 | 0.00 | 0.00 | 75 | 1020.9 |
| 20260831142622 | 78 | 4 | 1.0 | 3.0 | 0.00 | 0.00 | 0.00 | 75 | 1021.0 |
| 20260831142131 | 78 | 41 | 1.0 | 3.0 | 0.00 | 0.00 | 0.00 | 76 | 1020.9 |
| 20260831141619 | 78 | 178 | 1.0 | 3.0 | 0.00 | 0.00 | 0.00 | 76 | 1020.9 |
| 20260831141128 | 78 | 131 | 0.0 | 3.0 | 0.00 | 0.00 | 0.00 | 77 | 1021.0 |
| 20260831140617 | 78 | 103 | 0.0 | 3.0 | 0.00 | 0.00 | 0.00 | 77 | 1021.1 |
| 20260831140126 | 78 | 112 | 0.0 | 2.0 | 0.00 | 0.00 | 0.00 | 76 | 1020.9 |
| 20260831135615 | 78 | 165 | 0.0 | 4.0 | 0.00 | 0.00 | 0.00 | 78 | 1020.9 |
| 20260831135123 | 77 | 165 | 1.0 | 4.0 | 0.00 | 0.00 | 0.00 | 78 | 1020.9 |
| 20260831134633 | 77 | 101 | 0.0 | 1.0 | 0.00 | 0.00 | 0.00 | 80 | 1021.0 |
| 20260831134121 | 76 | 116 | 0.0 | 1.0 | 0.00 | 0.00 | 0.00 | 80 | 1021.1 |
| 20260831133630 | 76 | 103 | 0.0 | 2.0 | 0.00 | 0.00 | 0.00 | 81 | 1021.1 |
| 20260831133119 | 76 | 103 | 1.0 | 2.0 | 0.00 | 0.00 | 0.00 | 82 | 1021.0 |
| 20260831132629 | 76 | 226 | 0.0 | 1.0 | 0.00 | 0.00 | 0.00 | 82 | 1021.1 |
| 20260831132118 | 75 | 20 | 0.0 | 0.0 | 0.00 | 0.00 | 0.00 | 83 | 1021.3 |
| 20260831131627 | 75 | 20 | 0.0 | 0.0 | 0.00 | 0.00 | 0.00 | 83 | 1021.2 |
| 20260831131114 | 75 | 20 | 0.0 | 0.0 | 0.00 | 0.00 | 0.00 | 84 | 1021.1 |
| 20260831130640 | 75 | 20 | 0.0 | 0.0 | 0.00 | 0.00 | 0.00 | 85 | 1021.1 |
| 20260831130129 | 75 | 20 | 0.0 | 0.0 | 0.00 | 0.00 | 0.00 | 85 | 1021.2 |
| 20260831125618 | 75 | 72 | 0.0 | 0.0 | 0.00 | 0.00 | 0.00 | 85 | 1021.1 |
| 20260831125127 | 75 | 56 | 0.0 | 0.0 | 0.00 | 0.00 | 0.00 | 85 | 1021.1 |
| 20260831124616 | 75 | 56 | 0.0 | 0.0 | 0.00 | 0.00 | 0.00 | 86 | 1021.0 |
| 20260831124124 | 75 | 56 | 0.0 | 0.0 | 0.00 | 0.00 | 0.00 | 86 | 1021.0 |
| 20260831123614 | 75 | 56 | 0.0 | 0.0 | 0.00 | 0.00 | 0.00 | 86 | 1020.8 |
| 20260831123142 | 75 | 87 | 0.0 | 0.0 | 0.00 | 0.00 | 0.00 | 87 | 1020.9 |
| 20260831122630 | 75 | 87 | 0.0 | 0.0 | 0.00 | 0.00 | 0.00 | 87 | 1020.9 |
| 20260831122119 | 75 | 87 | 0.0 | 0.0 | 0.00 | 0.00 | 0.00 | 88 | 1020.8 |
| 20260831121627 | 75 | 40 | 0.0 | 0.0 | 0.00 | 0.00 | 0.00 | 88 | 1020.7 |
| 20260831121115 | 75 | 52 | 0.0 | 1.0 | 0.00 | 0.00 | 0.00 | 89 | 1020.7 |
| 20260831120623 | 75 | 52 | 0.0 | 2.0 | 0.00 | 0.00 | 0.00 | 89 | 1020.8 |
| 20260831120113 | 74 | 94 | 0.0 | 0.0 | 0.00 | 0.00 | 0.00 | 89 | 1020.7 |
| 20260831115623 | 74 | 123 | 0.0 | 0.0 | 0.00 | 0.00 | 0.00 | 90 | 1020.6 |
| 20260831115153 | 74 | 278 | 0.0 | 0.0 | 0.00 | 0.00 | 0.00 | 90 | 1020.7 |
| 20260831114640 | 73 | 165 | 0.0 | 0.0 | 0.00 | 0.00 | 0.00 | 91 | 1020.8 |
| 20260831114124 | 73 | 165 | 0.0 | 0.0 | 0.00 | 0.00 | 0.00 | 90 | 1020.8 |
| 20260831113632 | 73 | 165 | 0.0 | 0.0 | 0.00 | 0.00 | 0.00 | 90 | 1020.7 |
| 20260831113121 | 72 | 165 | 0.0 | 0.0 | 0.00 | 0.00 | 0.00 | 90 | 1020.6 |
| 20260831112630 | 72 | 165 | 0.0 | 0.0 | 0.00 | 0.00 | 0.00 | 90 | 1020.7 |
| 20260831112120 | 72 | 280 | 0.0 | 0.0 | 0.00 | 0.00 | 0.00 | 91 | 1020.7 |
| 20260831111629 | 72 | 165 | 0.0 | 0.0 | 0.00 | 0.00 | 0.00 | 91 | 1020.5 |
| 20260831111119 | 72 | 165 | 0.0 | 0.0 | 0.00 | 0.00 | 0.00 | 91 | 1020.3 |
| 20260831110647 | 72 | 279 | 0.0 | 0.0 | 0.00 | 0.00 | 0.00 | 91 | 1020.2 |
| 20260831110115 | 71 | 278 | 0.0 | 0.0 | 0.00 | 0.00 | 0.00 | 91 | 1020.2 |
| 20260831105625 | 71 | 278 | 0.0 | 0.0 | 0.00 | 0.00 | 0.00 | 91 | 1020.2 |
| 20260831105115 | 72 | 278 | 0.0 | 0.0 | 0.00 | 0.00 | 0.00 | 91 | 1020.0 |
| 20260831104625 | 71 | 278 | 0.0 | 0.0 | 0.00 | 0.00 | 0.00 | 91 | 1020.1 |
| 20260831104133 | 71 | 278 | 0.0 | 0.0 | 0.00 | 0.00 | 0.00 | 91 | 1020.0 |
| 20260831103642 | 71 | 278 | 0.0 | 0.0 | 0.00 | 0.00 | 0.00 | 91 | 1019.9 |
| 20260831103130 | 71 | 278 | 0.0 | 0.0 | 0.00 | 0.00 | 0.00 | 91 | 1019.9 |
| 20260831102640 | 71 | 278 | 0.0 | 0.0 | 0.00 | 0.00 | 0.00 | 91 | 1019.8 |
| 20260831102128 | 71 | 278 | 0.0 | 0.0 | 0.00 | 0.00 | 0.00 | 91 | 1019.8 |
| 20260831101617 | 71 | 278 | 0.0 | 0.0 | 0.00 | 0.00 | 0.00 | 91 | 1019.8 |
| 20260831101123 | 71 | 278 | 0.0 | 0.0 | 0.00 | 0.00 | 0.00 | 91 | 1019.7 |
| 20260831100632 | 72 | 278 | 0.0 | 0.0 | 0.00 | 0.00 | 0.00 | 91 | 1019.8 |
| 20260831100121 | 72 | 278 | 0.0 | 0.0 | 0.00 | 0.00 | 0.00 | 91 | 1019.6 |
| 20260831095631 | 72 | 278 | 0.0 | 0.0 | 0.00 | 0.00 | 0.00 | 91 | 1019.8 |
| 20260831095121 | 72 | 278 | 0.0 | 0.0 | 0.00 | 0.00 | 0.00 | 91 | 1019.7 |
| 20260831094629 | 72 | 278 | 0.0 | 0.0 | 0.00 | 0.00 | 0.00 | 91 | 1019.7 |
| 20260831094119 | 71 | 278 | 0.0 | 0.0 | 0.00 | 0.00 | 0.00 | 91 | 1019.6 |
| 20260831093627 | 71 | 278 | 0.0 | 0.0 | 0.00 | 0.00 | 0.00 | 91 | 1019.6 |
| 20260831093116 | 71 | 278 | 0.0 | 0.0 | 0.00 | 0.00 | 0.00 | 91 | 1019.6 |
| 20260831092626 | 71 | 278 | 0.0 | 0.0 | 0.00 | 0.00 | 0.00 | 91 | 1019.5 |
| 20260831092136 | 71 | 278 | 0.0 | 0.0 | 0.00 | 0.00 | 0.00 | 91 | 1019.4 |
| 20260831091623 | 72 | 278 | 0.0 | 0.0 | 0.00 | 0.00 | 0.00 | 90 | 1019.4 |
| 20260831091133 | 72 | 214 | 0.0 | 0.0 | 0.00 | 0.00 | 0.00 | 90 | 1019.4 |
| 20260831090622 | 72 | 214 | 0.0 | 0.0 | 0.00 | 0.00 | 0.00 | 90 | 1019.4 |
| 20260831090152 | 72 | 214 | 0.0 | 0.0 | 0.00 | 0.00 | 0.00 | 90 | 1019.5 |
| 20260831085620 | 72 | 214 | 0.0 | 0.0 | 0.00 | 0.00 | 0.00 | 90 | 1019.4 |
| 20260831085129 | 72 | 214 | 0.0 | 0.0 | 0.00 | 0.00 | 0.00 | 91 | 1019.4 |
| 20260831084617 | 71 | 294 | 0.0 | 0.0 | 0.00 | 0.00 | 0.00 | 91 | 1019.5 |
| 20260831084126 | 71 | 294 | 0.0 | 0.0 | 0.00 | 0.00 | 0.00 | 91 | 1019.5 |
| 20260831083615 | 71 | 294 | 0.0 | 0.0 | 0.00 | 0.00 | 0.00 | 91 | 1019.5 |
| 20260831083141 | 71 | 294 | 0.0 | 0.0 | 0.00 | 0.00 | 0.00 | 90 | 1019.4 |
| 20260831082629 | 72 | 294 | 0.0 | 0.0 | 0.00 | 0.00 | 0.00 | 90 | 1019.5 |
| 20260831082119 | 72 | 294 | 0.0 | 0.0 | 0.00 | 0.00 | 0.00 | 89 | 1019.4 |
| 20260831081628 | 72 | 294 | 0.0 | 0.0 | 0.00 | 0.00 | 0.00 | 89 | 1019.5 |
| 20260831081137 | 72 | 242 | 0.0 | 0.0 | 0.00 | 0.00 | 0.00 | 89 | 1019.4 |
| 20260831080625 | 72 | 9 | 0.0 | 0.0 | 0.00 | 0.00 | 0.00 | 89 | 1019.4 |
| 20260831080115 | 72 | 9 | 0.0 | 0.0 | 0.00 | 0.00 | 0.00 | 88 | 1019.4 |
| 20260831075624 | 73 | 9 | 0.0 | 0.0 | 0.00 | 0.00 | 0.00 | 88 | 1019.2 |
| 20260831075114 | 73 | 9 | 0.0 | 0.0 | 0.00 | 0.00 | 0.00 | 88 | 1019.4 |
| 20260831074624 | 73 | 9 | 0.0 | 0.0 | 0.00 | 0.00 | 0.00 | 89 | 1019.5 |
| 20260831074132 | 72 | 9 | 0.0 | 0.0 | 0.00 | 0.00 | 0.00 | 89 | 1019.6 |
| 20260831073621 | 72 | 9 | 0.0 | 0.0 | 0.00 | 0.00 | 0.00 | 89 | 1019.5 |
| 20260831073130 | 72 | 9 | 0.0 | 0.0 | 0.00 | 0.00 | 0.00 | 90 | 1019.6 |
| 20260831072620 | 72 | 9 | 0.0 | 0.0 | 0.00 | 0.00 | 0.00 | 90 | 1019.7 |
| 20260831072129 | 72 | 9 | 0.0 | 0.0 | 0.00 | 0.00 | 0.00 | 90 | 1019.7 |
| 20260831071618 | 71 | 9 | 0.0 | 0.0 | 0.00 | 0.00 | 0.00 | 90 | 1019.8 |
| 20260831071126 | 71 | 343 | 0.0 | 0.0 | 0.00 | 0.00 | 0.00 | 89 | 1019.8 |
| 20260831070633 | 72 | 343 | 0.0 | 0.0 | 0.00 | 0.00 | 0.00 | 89 | 1019.6 |
| 20260831070122 | 73 | 305 | 0.0 | 0.0 | 0.00 | 0.00 | 0.00 | 87 | 1019.4 |
| 20260831065627 | 73 | 305 | 0.0 | 0.0 | 0.00 | 0.00 | 0.00 | 88 | 1019.4 |
| 20260831065117 | 73 | 305 | 0.0 | 0.0 | 0.00 | 0.00 | 0.00 | 88 | 1019.5 |
| 20260831064646 | 73 | 305 | 0.0 | 0.0 | 0.00 | 0.00 | 0.00 | 88 | 1019.5 |
| 20260831064113 | 72 | 305 | 0.0 | 0.0 | 0.00 | 0.00 | 0.00 | 89 | 1019.6 |
| 20260831063621 | 72 | 305 | 0.0 | 0.0 | 0.00 | 0.00 | 0.00 | 88 | 1019.6 |
| 20260831063130 | 73 | 305 | 0.0 | 0.0 | 0.00 | 0.00 | 0.00 | 87 | 1019.4 |
| 20260831062617 | 73 | 305 | 0.0 | 0.0 | 0.00 | 0.00 | 0.00 | 88 | 1019.5 |
| 20260831062147 | 73 | 305 | 0.0 | 0.0 | 0.00 | 0.00 | 0.00 | 88 | 1019.4 |
| 20260831061634 | 73 | 305 | 0.0 | 0.0 | 0.00 | 0.00 | 0.00 | 88 | 1019.4 |
| 20260831061123 | 73 | 305 | 0.0 | 0.0 | 0.00 | 0.00 | 0.00 | 88 | 1019.5 |
| 20260831060633 | 73 | 305 | 0.0 | 0.0 | 0.00 | 0.00 | 0.00 | 86 | 1019.6 |
| 20260831060122 | 73 | 305 | 0.0 | 0.0 | 0.00 | 0.00 | 0.00 | 86 | 1019.7 |
| 20260831055653 | 73 | 305 | 0.0 | 0.0 | 0.00 | 0.00 | 0.00 | 86 | 1019.9 |
| 20260831055141 | 74 | 305 | 0.0 | 0.0 | 0.00 | 0.00 | 0.00 | 85 | 1019.8 |
| 20260831054624 | 74 | 305 | 0.0 | 0.0 | 0.00 | 0.00 | 0.00 | 86 | 1019.9 |
| 20260831054114 | 73 | 305 | 0.0 | 0.0 | 0.00 | 0.00 | 0.00 | 87 | 1019.9 |
| 20260831053623 | 73 | 305 | 0.0 | 0.0 | 0.00 | 0.00 | 0.00 | 86 | 1019.9 |
| 20260831053133 | 73 | 305 | 0.0 | 0.0 | 0.00 | 0.00 | 0.00 | 87 | 1019.9 |
| 20260831052643 | 73 | 305 | 0.0 | 0.0 | 0.00 | 0.00 | 0.00 | 87 | 1020.0 |
| 20260831052130 | 73 | 305 | 0.0 | 0.0 | 0.00 | 0.00 | 0.00 | 87 | 1019.9 |
| 20260831051620 | 73 | 305 | 0.0 | 0.0 | 0.00 | 0.00 | 0.00 | 87 | 1019.9 |
| 20260831051149 | 73 | 305 | 0.0 | 0.0 | 0.00 | 0.00 | 0.00 | 87 | 1019.9 |
| 20260831050617 | 73 | 305 | 0.0 | 0.0 | 0.00 | 0.00 | 0.00 | 86 | 1019.9 |
| 20260831050126 | 74 | 305 | 0.0 | 0.0 | 0.00 | 0.00 | 0.00 | 86 | 1019.9 |
| 20260831045636 | 74 | 305 | 0.0 | 0.0 | 0.00 | 0.00 | 0.00 | 86 | 1019.9 |
| 20260831045123 | 74 | 305 | 0.0 | 0.0 | 0.00 | 0.00 | 0.00 | 86 | 1019.8 |
| 20260831044614 | 74 | 305 | 0.0 | 0.0 | 0.00 | 0.00 | 0.00 | 86 | 1019.9 |
| 20260831044122 | 74 | 305 | 0.0 | 0.0 | 0.00 | 0.00 | 0.00 | 85 | 1019.9 |
| 20260831043632 | 74 | 305 | 0.0 | 0.0 | 0.00 | 0.00 | 0.00 | 84 | 1020.0 |
| 20260831043142 | 75 | 305 | 0.0 | 0.0 | 0.00 | 0.00 | 0.00 | 84 | 1020.0 |
| 20260831042625 | 74 | 305 | 0.0 | 0.0 | 0.00 | 0.00 | 0.00 | 85 | 1019.9 |
| 20260831042114 | 74 | 305 | 0.0 | 0.0 | 0.00 | 0.00 | 0.00 | 85 | 1020.0 |
| 20260831041624 | 74 | 305 | 0.0 | 0.0 | 0.00 | 0.00 | 0.00 | 85 | 1020.1 |
| 20260831041113 | 74 | 305 | 0.0 | 0.0 | 0.00 | 0.00 | 0.00 | 84 | 1019.9 |
| 20260831040623 | 75 | 305 | 0.0 | 0.0 | 0.00 | 0.00 | 0.00 | 85 | 1020.0 |
| 20260831040131 | 75 | 305 | 0.0 | 0.0 | 0.00 | 0.00 | 0.00 | 85 | 1020.0 |
| 20260831035621 | 74 | 305 | 0.0 | 0.0 | 0.00 | 0.00 | 0.00 | 85 | 1020.1 |
| 20260831035129 | 74 | 305 | 0.0 | 0.0 | 0.00 | 0.00 | 0.00 | 85 | 1020.3 |
| 20260831034617 | 75 | 305 | 0.0 | 0.0 | 0.00 | 0.00 | 0.00 | 84 | 1020.2 |
| 20260831034125 | 75 | 305 | 0.0 | 0.0 | 0.00 | 0.00 | 0.00 | 84 | 1020.2 |
| 20260831033615 | 74 | 305 | 0.0 | 0.0 | 0.00 | 0.00 | 0.00 | 84 | 1020.2 |
| 20260831033123 | 75 | 305 | 0.0 | 0.0 | 0.00 | 0.00 | 0.00 | 83 | 1020.0 |
| 20260831032613 | 75 | 305 | 0.0 | 0.0 | 0.00 | 0.00 | 0.00 | 82 | 1020.0 |
| 20260831032122 | 76 | 305 | 0.0 | 0.0 | 0.00 | 0.00 | 0.00 | 82 | 1020.1 |
| 20260831031632 | 76 | 305 | 0.0 | 0.0 | 0.00 | 0.00 | 0.00 | 81 | 1020.3 |
| 20260831031121 | 76 | 305 | 0.0 | 0.0 | 0.00 | 0.00 | 0.00 | 82 | 1020.3 |
| 20260831030650 | 75 | 305 | 0.0 | 0.0 | 0.00 | 0.00 | 0.00 | 82 | 1020.2 |
| 20260831030119 | 76 | 317 | 0.0 | 1.0 | 0.00 | 0.00 | 0.00 | 82 | 1020.3 |
| 20260831025628 | 76 | 324 | 0.0 | 2.0 | 0.00 | 0.00 | 0.00 | 82 | 1020.3 |
| 20260831025117 | 76 | 324 | 0.0 | 1.0 | 0.00 | 0.00 | 0.00 | 82 | 1020.4 |
| 20260831024642 | 76 | 312 | 0.0 | 0.0 | 0.00 | 0.00 | 0.00 | 82 | 1020.5 |
| 20260831024131 | 76 | 303 | 0.0 | 0.0 | 0.00 | 0.00 | 0.00 | 82 | 1020.5 |
| 20260831023618 | 76 | 303 | 0.0 | 0.0 | 0.00 | 0.00 | 0.00 | 82 | 1020.5 |
| 20260831023128 | 77 | 280 | 0.0 | 0.0 | 0.00 | 0.00 | 0.00 | 82 | 1020.6 |
| 20260831022616 | 77 | 280 | 0.0 | 2.0 | 0.00 | 0.00 | 0.00 | 82 | 1020.5 |
| 20260831022124 | 77 | 280 | 0.0 | 2.0 | 0.00 | 0.00 | 0.00 | 81 | 1020.5 |
| 20260831021613 | 77 | 299 | 0.0 | 2.0 | 0.00 | 0.00 | 0.00 | 81 | 1020.5 |
| 20260831021122 | 77 | 291 | 0.0 | 3.0 | 0.00 | 0.00 | 0.00 | 80 | 1020.5 |
| 20260831020631 | 77 | 311 | 0.0 | 3.0 | 0.00 | 0.00 | 0.00 | 80 | 1020.6 |
| 20260831020120 | 77 | 298 | 0.0 | 0.0 | 0.00 | 0.00 | 0.00 | 80 | 1020.5 |
| 20260831015630 | 77 | 303 | 0.0 | 3.0 | 0.00 | 0.00 | 0.00 | 81 | 1020.5 |
| 20260831015118 | 77 | 274 | 0.0 | 4.0 | 0.00 | 0.00 | 0.00 | 81 | 1020.5 |
| 20260831014627 | 77 | 296 | 1.0 | 4.0 | 0.00 | 0.00 | 0.00 | 81 | 1020.5 |
| 20260831014115 | 78 | 281 | 0.0 | 2.0 | 0.00 | 0.00 | 0.00 | 80 | 1020.5 |
| 20260831013625 | 78 | 281 | 0.0 | 6.0 | 0.00 | 0.00 | 0.00 | 80 | 1020.6 |
| 20260831013113 | 78 | 297 | 0.0 | 6.0 | 0.00 | 0.00 | 0.00 | 80 | 1020.5 |
| 20260831012623 | 78 | 311 | 0.0 | 3.0 | 0.00 | 0.00 | 0.00 | 79 | 1020.5 |
| 20260831012133 | 78 | 320 | 0.0 | 3.0 | 0.00 | 0.00 | 0.00 | 80 | 1020.4 |
| 20260831011621 | 78 | 288 | 1.0 | 6.0 | 0.00 | 0.00 | 0.00 | 79 | 1020.5 |
| 20260831011130 | 78 | 255 | 0.0 | 6.0 | 0.00 | 0.00 | 0.00 | 79 | 1020.4 |
| 20260831010619 | 79 | 266 | 0.0 | 2.0 | 0.00 | 0.00 | 0.00 | 79 | 1020.3 |
| 20260831010128 | 79 | 200 | 0.0 | 4.0 | 0.00 | 0.00 | 0.00 | 78 | 1020.3 |
| 20260831005653 | 79 | 277 | 0.0 | 4.0 | 0.00 | 0.00 | 0.00 | 77 | 1020.2 |
| 20260831005121 | 80 | 270 | 0.0 | 4.0 | 0.00 | 0.00 | 0.00 | 76 | 1020.4 |
| 20260831004631 | 80 | 308 | 0.0 | 4.0 | 0.00 | 0.00 | 0.00 | 76 | 1020.2 |
| 20260831004121 | 80 | 255 | 1.0 | 13.0 | 0.00 | 0.00 | 0.00 | 75 | 1020.1 |
| 20260831003649 | 81 | 218 | 2.0 | 13.0 | 0.00 | 0.00 | 0.00 | 74 | 1020.1 |
| 20260831003137 | 81 | 91 | 5.0 | 15.0 | 0.00 | 0.00 | 0.00 | 73 | 1019.9 |
| 20260831002644 | 81 | 209 | 3.0 | 15.0 | 0.00 | 0.00 | 0.00 | 73 | 1019.9 |
| 20260831002132 | 81 | 239 | 3.0 | 7.0 | 0.00 | 0.00 | 0.00 | 73 | 1019.9 |
| 20260831001621 | 81 | 269 | 0.0 | 0.0 | 0.00 | 0.00 | 0.00 | 73 | 1019.8 |
| 20260831001149 | 82 | 259 | 0.0 | 0.0 | 0.00 | 0.00 | 0.00 | 72 | 1019.7 |
| 20260831000638 | 82 | 259 | 0.0 | 0.0 | 0.00 | 0.00 | 0.00 | 71 | 1019.8 |
| 20260831000126 | 82 | 259 | 0.0 | 3.0 | 0.00 | 0.00 | 0.00 | 70 | 1019.7 |
| 20260830235615 | 82 | 235 | 0.0 | 8.0 | 0.00 | 0.00 | 0.00 | 70 | 1019.5 |
| 20260830235119 | 82 | 245 | 3.0 | 8.0 | 0.00 | 0.00 | 0.00 | 71 | 1019.4 |
| 20260830234629 | 81 | 219 | 1.0 | 4.0 | 0.00 | 0.00 | 0.00 | 72 | 1019.4 |
| 20260830234117 | 82 | 228 | 0.0 | 3.0 | 0.00 | 0.00 | 0.00 | 73 | 1019.3 |
| 20260830233626 | 81 | 330 | 0.0 | 0.0 | 0.00 | 0.00 | 0.00 | 72 | 1019.3 |
| 20260830233114 | 82 | 330 | 0.0 | 0.0 | 0.00 | 0.00 | 0.00 | 72 | 1019.4 |
| 20260830232623 | 82 | 330 | 0.0 | 0.0 | 0.00 | 0.00 | 0.00 | 73 | 1019.4 |
| 20260830232131 | 81 | 330 | 0.0 | 0.0 | 0.00 | 0.00 | 0.00 | 73 | 1019.5 |
| 20260830231640 | 81 | 330 | 0.0 | 0.0 | 0.00 | 0.00 | 0.00 | 73 | 1019.5 |
| 20260830231128 | 82 | 330 | 0.0 | 0.0 | 0.00 | 0.00 | 0.00 | 74 | 1019.6 |
| 20260830230618 | 82 | 330 | 0.0 | 0.0 | 0.00 | 0.00 | 0.00 | 72 | 1019.6 |
| 20260830230126 | 82 | 330 | 0.0 | 0.0 | 0.00 | 0.00 | 0.00 | 71 | 1019.6 |
| 20260830225615 | 82 | 330 | 0.0 | 0.0 | 0.00 | 0.00 | 0.00 | 70 | 1019.6 |
| 20260830225124 | 83 | 330 | 0.0 | 0.0 | 0.00 | 0.00 | 0.00 | 70 | 1019.6 |
| 20260830224632 | 83 | 330 | 0.0 | 0.0 | 0.00 | 0.00 | 0.00 | 69 | 1019.6 |
| 20260830224122 | 84 | 330 | 0.0 | 0.0 | 0.00 | 0.00 | 0.00 | 67 | 1019.7 |
| 20260830223631 | 85 | 330 | 0.0 | 1.0 | 0.00 | 0.00 | 0.00 | 65 | 1019.6 |
| 20260830223140 | 85 | 330 | 0.0 | 1.0 | 0.00 | 0.00 | 0.00 | 66 | 1019.5 |
| 20260830222625 | 85 | 86 | 0.0 | 0.0 | 0.00 | 0.00 | 0.00 | 64 | 1019.6 |
| 20260830222114 | 86 | 249 | 0.0 | 3.0 | 0.00 | 0.00 | 0.00 | 64 | 1019.6 |
| 20260830221624 | 86 | 321 | 0.0 | 4.0 | 0.00 | 0.00 | 0.00 | 62 | 1019.5 |
| 20260830221133 | 87 | 301 | 2.0 | 4.0 | 0.00 | 0.00 | 0.00 | 63 | 1019.5 |
| 20260830220642 | 86 | 222 | 2.0 | 4.0 | 0.00 | 0.00 | 0.00 | 64 | 1019.5 |
| 20260830220131 | 86 | 342 | 0.0 | 2.0 | 0.00 | 0.00 | 0.00 | 63 | 1019.5 |
| 20260830215620 | 86 | 47 | 0.0 | 3.0 | 0.00 | 0.00 | 0.00 | 63 | 1019.4 |
| 20260830215128 | 87 | 355 | 0.0 | 4.0 | 0.00 | 0.00 | 0.00 | 63 | 1019.4 |
| 20260830214616 | 86 | 301 | 1.0 | 4.0 | 0.00 | 0.00 | 0.00 | 65 | 1019.4 |
| 20260830214126 | 86 | 297 | 0.0 | 3.0 | 0.00 | 0.00 | 0.00 | 64 | 1019.5 |
| 20260830213614 | 86 | 66 | 1.0 | 3.0 | 0.00 | 0.00 | 0.00 | 62 | 1019.4 |
| 20260830213124 | 86 | 276 | 0.0 | 2.0 | 0.00 | 0.00 | 0.00 | 65 | 1019.4 |